[[{"header":{"parameterUnit":"m.s-1","parameterCategory":1,"la1":30.2991,"la2":30.254,"lo1":-89.0895,"lo2":-89.0444,"dy":0.0017,"dx":0.0017,"nx":28,"ny":28,"refTime":"2025-07-13T21:00:00:Z","depth":0,"parameterNumber":2,"parameterNumberName":"U-component_of_WINDS"},"data":[0,0,0,0,0,0,0,0,0,0,0,0,0,0,0,0,0,0,0,0,0,0,0,0,0,0,0,0,0,0,0,0,0,0,0,0,0,0,0,0,0,0,0,0,0,0,0,0,0,0,0,0,0,0,0,0,0,0,3.2713,3.2715,0,3.2859,3.2861,3.2863,3.2827,3.2824,3.2821,3.2818,3.2971,3.2977,3.2984,0,0,0,0,0,0,0,0,0,0,0,0,0,3.2405,3.2411,3.2713,3.2715,3.2717,3.2859,3.2861,3.2863,3.2827,3.2824,3.282,3.2817,3.2969,3.2976,3.2985,0,0,0,0,0,0,0,0,0,0,0,0,0,3.2544,3.2413,3.2713,3.2716,3.2718,3.2859,3.2861,3.2864,3.2828,3.2824,3.2819,3.2815,3.2966,3.2976,3.2986,3.3133,0,0,3.3016,3.3021,0,0,0,0,0,0,0,0,3.2536,3.2555,3.2714,3.2716,3.2718,3.282,3.2808,3.2954,3.2829,3.2786,3.2818,3.2813,3.2924,3.2938,3.2974,3.314,3.3147,3.3017,3.3023,3.3028,3.3031,0,0,0,0,0,0,0,3.2527,3.2549,3.2771,3.2716,3.2719,3.2711,3.2726,3.2836,3.2878,3.2789,3.2787,3.2805,3.2925,3.2965,3.2978,3.3149,3.3017,3.3026,3.3032,3.3036,3.3444,3.3449,0,0,0,0,0,0,3.2515,3.2541,3.2766,3.2775,3.2615,3.272,3.2736,3.2792,3.2876,3.2885,3.2808,3.2803,3.295,3.2966,3.2983,3.3162,3.3028,3.3037,3.3043,3.344,3.3445,3.3451,0,0,0,0,0,0,3.2508,3.2535,3.276,3.2658,3.2686,3.273,3.2792,3.2797,3.2837,3.289,3.2898,3.2842,3.2947,3.2969,3.3096,3.3167,3.3042,3.3051,3.3434,3.3441,3.3448,3.3521,0,0,0,0,0,0,3.25,3.2533,3.2589,3.2659,3.2691,3.2871,3.2796,3.2803,3.2854,3.2848,3.2923,3.2932,3.2945,3.3081,3.3106,3.3178,3.3059,3.3428,3.3437,3.3446,3.3513,3.353,3.3545,0,0,0,0,0,3.2489,3.2605,3.2592,3.262,3.2762,3.2875,3.2893,3.2906,3.286,3.2917,3.2951,3.293,3.3155,3.3095,3.3122,3.3199,3.3423,3.3435,3.3445,3.3505,3.3527,3.3544,0,0,0,0,0,0,3.2543,3.2614,3.2601,3.2743,3.2803,3.2868,3.2941,3.2927,3.3003,3.2994,3.3007,3.3024,3.3154,3.3189,3.3121,3.3346,3.3283,3.3299,3.3319,3.334,3.3355,3.3345,3.3067,0,0,0,0,0,3.2571,3.2656,3.2713,3.2833,3.2864,3.2897,3.2947,3.2951,3.3014,3.304,3.3083,3.3146,3.3231,3.3287,3.3368,3.3517,3.3533,3.3583,3.3599,3.3612,3.3627,3.3709,3.3732,3.3486,3.3486,3.3486,0,0,3.2631,3.268,3.2733,3.2845,3.2892,3.2981,3.2919,3.3015,3.3081,3.3055,3.3177,3.3212,3.3283,3.3422,3.3485,3.3455,3.3698,3.3626,3.3636,3.3644,3.3722,3.3746,3.3766,3.3493,3.3492,3.3491,0,0,3.2785,3.283,3.2935,3.2983,3.3055,3.3076,3.3101,3.3169,3.3191,3.3314,3.3296,3.3375,3.352,3.3572,3.3617,3.379,3.3773,3.3816,3.3901,3.3981,3.4,3.4017,3.408,3.4102,3.3831,3.3831,3.3831,0,3.2851,3.2982,3.2991,3.3089,3.3139,3.3117,3.3224,3.3271,3.3366,3.3401,3.3365,3.3548,3.3594,3.3745,3.3787,3.3824,3.3854,3.3808,3.3996,3.4014,3.403,3.409,3.4113,3.3836,3.3835,3.3835,3.3834,0,3.306,3.3151,3.3227,3.3318,3.3377,3.3479,3.3503,3.3562,3.356,3.3586,3.3712,3.3766,3.3858,3.3894,3.3894,3.4046,3.4025,3.3992,3.3929,3.4058,3.4115,3.4138,3.3843,3.3841,3.3839,3.3838,0,0,3.3254,3.3347,3.3375,3.3416,3.3493,3.3565,3.3666,3.3754,3.3805,3.3871,3.3956,3.408,3.405,3.4102,3.4107,3.4177,3.4312,3.4137,3.4138,3.4168,3.4483,3.4507,3.4534,3.43,3.4304,3.4308,3.4477,0,3.3416,3.3592,3.3603,3.3763,3.3848,3.3829,3.3917,3.3974,3.4,3.4077,3.4106,3.4193,3.4147,3.4178,3.4246,3.4281,3.4375,3.4269,3.4381,3.4385,3.4365,3.4563,3.459,3.4747,3.4499,3.4503,3.4506,0,3.3628,3.37,3.3869,3.3933,3.3969,3.4048,3.413,3.4203,3.4268,3.4282,3.4339,3.4335,3.4439,3.4371,3.4515,3.4442,3.4489,3.4513,3.4519,3.4531,3.4454,3.4582,3.4797,3.4821,3.454,3.4538,3.4535,0,3.3755,3.3893,3.4012,3.4047,3.4126,3.4181,3.4217,3.4277,3.433,3.4402,3.4436,3.452,3.4566,3.4631,3.465,3.4598,3.4794,3.4727,3.481,3.481,3.4854,3.4851,3.508,3.4881,3.4881,3.488,3.488,0,3.3935,3.404,3.4069,3.4143,3.4259,3.427,3.4385,3.4417,3.4471,3.4551,3.4539,3.4614,3.4633,3.4712,3.4728,3.4845,3.4866,3.4881,3.4885,3.4883,3.4882,3.4915,3.4905,3.4887,3.4885,3.4884,3.4883,0,3.4097,3.412,3.4249,3.4312,3.433,3.4413,3.4468,3.4539,3.4562,3.4664,3.4688,3.4726,3.4819,3.4843,3.4954,3.4964,3.5104,3.5096,3.5082,3.5082,3.5164,3.5156,3.5424,3.5461,3.5236,3.5238,3.524,0,3.4211,3.4291,3.4362,3.4414,3.4451,3.4535,3.4589,3.4602,3.4658,3.4737,3.4799,3.489,3.4964,3.5113,3.5151,3.5236,3.5231,3.5319,3.5244,3.524,3.5234,3.523,3.5238,3.5334,3.5336,3.5338,3.534,0,3.4412,3.442,3.4496,3.4578,3.4641,3.4706,3.4768,3.4812,3.4834,3.4898,3.4992,3.5049,3.5161,3.5252,3.5338,3.5375,3.5362,3.5363,3.5387,3.5387,3.5376,3.5384,3.5122,3.5357,3.5355,3.5354,3.5353,3.5352,3.4555,3.4625,3.4685,3.4771,3.4819,3.4877,3.4947,3.4979,3.5057,3.5149,3.5152,3.5255,3.5317,3.543,3.5472,3.5553,3.5527,3.5562,3.5571,3.5579,3.5587,3.5362,3.5569,3.5568,3.5568,3.5568,3.5567,0,3.4757,3.4794,3.4873,3.4959,3.5027,3.5006,3.5074,3.5132,3.5222,3.5281,3.5353,3.5461,3.5549,3.5593,3.5681,3.5737,3.5733,3.576,3.5757,3.5766,3.5605,3.5576,3.5761,3.5761,3.5761,3.5761,3.5761,3.5761,3.487,3.4987,3.5001,3.5142,3.5179,3.5279,3.5319,3.5373,3.542,3.5541,3.5613,3.5641,3.5694,3.5785,3.5865,3.5876,3.5909,3.5939,3.5947,3.5797,3.5777,3.5758,3.5731,3.5946,3.5946,3.6102,3.6103,3.6104]},{"header":{"parameterUnit":"m.s-1","parameterCategory":1,"la1":30.2991,"la2":30.254,"lo1":-89.0895,"lo2":-89.0444,"dy":0.0017,"dx":0.0017,"nx":28,"ny":28,"refTime":"2025-07-13T21:00:00:Z","depth":0,"parameterNumber":3,"parameterNumberName":"V-component_of_WINDS"},"data":[0,0,0,0,0,0,0,0,0,0,0,0,0,0,0,0,0,0,0,0,0,0,0,0,0,0,0,0,0,0,0,0,0,0,0,0,0,0,0,0,0,0,0,0,0,0,0,0,0,0,0,0,0,0,0,0,0,0,-1.6011,-1.6012,0,-1.6128,-1.613,-1.6131,-1.6173,-1.6173,-1.6172,-1.6172,-1.6293,-1.6297,-1.63,0,0,0,0,0,0,0,0,0,0,0,0,0,-1.5824,-1.5827,-1.6011,-1.6012,-1.6014,-1.6128,-1.613,-1.6131,-1.6173,-1.6173,-1.6172,-1.6172,-1.6292,-1.6296,-1.63,0,0,0,0,0,0,0,0,0,0,0,0,0,-1.592,-1.5828,-1.601,-1.6048,-1.6053,-1.6128,-1.613,-1.6132,-1.6173,-1.6173,-1.6172,-1.6172,-1.629,-1.6296,-1.6301,-1.6347,0,0,-1.6318,-1.632,0,0,0,0,0,0,0,0,-1.5914,-1.5926,-1.6041,-1.6046,-1.6051,-1.6135,-1.6108,-1.6204,-1.6174,-1.6128,-1.6172,-1.6171,-1.6241,-1.6251,-1.6274,-1.6353,-1.6358,-1.6318,-1.6321,-1.6324,-1.6325,0,0,0,0,0,0,0,-1.5907,-1.5922,-1.6057,-1.6043,-1.6049,-1.606,-1.6073,-1.6127,-1.6187,-1.6132,-1.6135,-1.6148,-1.6244,-1.6269,-1.6277,-1.636,-1.6318,-1.6323,-1.6326,-1.6328,-1.6483,-1.6484,0,0,0,0,0,0,-1.5894,-1.5916,-1.6054,-1.6061,-1.598,-1.6064,-1.6078,-1.6109,-1.6186,-1.6197,-1.6149,-1.615,-1.626,-1.6271,-1.6282,-1.6341,-1.6324,-1.6329,-1.6332,-1.6482,-1.6483,-1.6484,0,0,0,0,0,0,-1.589,-1.5906,-1.6049,-1.5989,-1.6008,-1.6068,-1.6102,-1.6112,-1.6137,-1.6199,-1.621,-1.6163,-1.626,-1.6274,-1.6331,-1.6346,-1.6331,-1.6336,-1.6481,-1.6483,-1.6484,-1.6459,0,0,0,0,0,0,-1.5885,-1.5904,-1.5922,-1.5989,-1.6011,-1.6095,-1.6103,-1.6114,-1.6146,-1.6148,-1.6215,-1.6226,-1.626,-1.6322,-1.6336,-1.6353,-1.634,-1.648,-1.6482,-1.6483,-1.6459,-1.646,-1.646,0,0,0,0,0,-1.5878,-1.591,-1.5923,-1.5939,-1.6034,-1.6096,-1.6109,-1.6147,-1.6147,-1.6165,-1.6206,-1.6224,-1.6342,-1.6328,-1.6344,-1.6362,-1.6479,-1.6481,-1.6483,-1.6459,-1.646,-1.646,0,0,0,0,0,0,-1.5843,-1.592,-1.5934,-1.599,-1.6036,-1.6103,-1.6127,-1.6147,-1.6194,-1.6195,-1.6241,-1.6256,-1.6309,-1.6342,-1.6324,-1.6411,-1.6412,-1.6417,-1.6388,-1.6389,-1.639,-1.638,-1.6345,0,0,0,0,0,-1.5842,-1.5885,-1.595,-1.5993,-1.6015,-1.6067,-1.6095,-1.6121,-1.6171,-1.6191,-1.6236,-1.6284,-1.6332,-1.6362,-1.641,-1.6464,-1.648,-1.6485,-1.6486,-1.6486,-1.649,-1.6522,-1.6525,-1.6491,-1.6491,-1.6491,0,0,-1.584,-1.5887,-1.5912,-1.5987,-1.6026,-1.607,-1.6083,-1.6129,-1.6163,-1.6198,-1.6254,-1.6289,-1.6346,-1.6401,-1.6428,-1.643,-1.6503,-1.6488,-1.6488,-1.6492,-1.6524,-1.6527,-1.653,-1.6492,-1.6492,-1.6492,0,0,-1.5859,-1.5899,-1.5939,-1.5978,-1.6037,-1.6071,-1.6081,-1.6145,-1.617,-1.6227,-1.6255,-1.6295,-1.6377,-1.6417,-1.6447,-1.6483,-1.6501,-1.6497,-1.65,-1.653,-1.6533,-1.6535,-1.6548,-1.6552,-1.6501,-1.6501,-1.6501,0,-1.5848,-1.5916,-1.5957,-1.6002,-1.6034,-1.6069,-1.611,-1.6146,-1.6218,-1.624,-1.6241,-1.6345,-1.6386,-1.6451,-1.646,-1.6484,-1.6497,-1.6489,-1.6529,-1.6532,-1.6535,-1.6548,-1.6552,-1.65,-1.65,-1.65,-1.65,0,-1.5901,-1.5947,-1.5972,-1.6041,-1.6076,-1.6119,-1.6167,-1.6198,-1.6222,-1.6256,-1.6315,-1.6365,-1.6424,-1.6442,-1.6465,-1.6511,-1.6511,-1.652,-1.6521,-1.6537,-1.6549,-1.6555,-1.6498,-1.6499,-1.6499,-1.6499,0,0,-1.59,-1.5991,-1.5999,-1.6031,-1.6099,-1.6136,-1.6181,-1.6239,-1.6265,-1.6313,-1.6352,-1.6421,-1.6431,-1.6466,-1.6494,-1.6521,-1.6546,-1.6527,-1.6529,-1.6529,-1.6601,-1.6593,-1.6598,-1.6559,-1.656,-1.6561,-1.6596,0,-1.5927,-1.6008,-1.6047,-1.6111,-1.6155,-1.6189,-1.6229,-1.6275,-1.6309,-1.6351,-1.6389,-1.6437,-1.6446,-1.6468,-1.6496,-1.6537,-1.6561,-1.6535,-1.6596,-1.6598,-1.658,-1.6604,-1.6596,-1.6627,-1.6601,-1.6602,-1.6603,0,-1.597,-1.6018,-1.6086,-1.615,-1.617,-1.6204,-1.6261,-1.6301,-1.6355,-1.6378,-1.6417,-1.6445,-1.6494,-1.6493,-1.6562,-1.6543,-1.6571,-1.6595,-1.6597,-1.6604,-1.6601,-1.6612,-1.6637,-1.6642,-1.6611,-1.661,-1.661,0,-1.5962,-1.6044,-1.6096,-1.6122,-1.6198,-1.6222,-1.6254,-1.6308,-1.634,-1.639,-1.6411,-1.6466,-1.6496,-1.6538,-1.658,-1.6575,-1.6645,-1.6647,-1.6666,-1.6665,-1.6678,-1.6677,-1.6708,-1.6697,-1.6697,-1.6696,-1.6696,0,-1.5988,-1.6029,-1.6094,-1.6125,-1.6172,-1.6217,-1.6263,-1.6298,-1.6345,-1.6385,-1.6419,-1.6455,-1.6509,-1.6553,-1.6586,-1.6638,-1.6652,-1.6672,-1.668,-1.6669,-1.6666,-1.6687,-1.6686,-1.6698,-1.6697,-1.6697,-1.6697,0,-1.5987,-1.6032,-1.6091,-1.6158,-1.6176,-1.6208,-1.6266,-1.6298,-1.6334,-1.6384,-1.6399,-1.6456,-1.6509,-1.6555,-1.6626,-1.6648,-1.6702,-1.6712,-1.6684,-1.6688,-1.6704,-1.6702,-1.675,-1.6759,-1.6741,-1.6741,-1.6741,0,-1.6,-1.6032,-1.6103,-1.6132,-1.6164,-1.6211,-1.6244,-1.629,-1.6324,-1.6388,-1.6413,-1.6469,-1.6516,-1.66,-1.6648,-1.6702,-1.6714,-1.6727,-1.6722,-1.671,-1.6714,-1.6711,-1.6715,-1.6727,-1.6727,-1.6727,-1.6727,0,-1.602,-1.6041,-1.6087,-1.6142,-1.6181,-1.6226,-1.6273,-1.6295,-1.635,-1.6386,-1.6441,-1.6477,-1.6549,-1.6605,-1.6664,-1.6699,-1.6722,-1.6728,-1.6735,-1.6723,-1.6705,-1.6716,-1.6684,-1.6726,-1.6726,-1.6726,-1.6726,-1.6726,-1.6026,-1.6057,-1.6111,-1.6162,-1.6202,-1.6245,-1.6279,-1.632,-1.6366,-1.6428,-1.6453,-1.6509,-1.6564,-1.6647,-1.6681,-1.6726,-1.673,-1.6741,-1.6743,-1.6745,-1.6743,-1.6699,-1.6738,-1.6738,-1.6738,-1.6738,-1.6738,0,-1.6047,-1.6084,-1.6131,-1.6195,-1.6235,-1.6254,-1.6306,-1.6339,-1.6388,-1.6436,-1.6482,-1.6546,-1.66,-1.6653,-1.671,-1.6736,-1.6748,-1.6749,-1.6747,-1.6755,-1.6737,-1.6724,-1.6738,-1.6738,-1.6738,-1.6738,-1.6738,-1.6738,-1.6063,-1.6115,-1.6143,-1.6216,-1.6253,-1.6308,-1.6336,-1.6377,-1.6416,-1.6485,-1.653,-1.6564,-1.6615,-1.6676,-1.6727,-1.6741,-1.676,-1.6759,-1.6776,-1.6757,-1.6756,-1.6756,-1.6745,-1.6763,-1.6763,-1.6791,-1.6791,-1.6791]}]]